Location: Zlin
(49.2330°N, 17.6670°E)
Time: 16:41:46
(UTC+01:00)

ISS - Pass Details

Date: 27 February 2019
Orbit: 406 x 411 km, 51.6° (Epoch: 21 March)

Event Time Altitude Azimuth Distance (km) Brightness Sun altitude
Exits shadow 04:46:22 19° 179° (S) 1,055 -1.8 -18.7°
Maximum altitude 04:47:43 24° 143° (SE) 884 -1.9 -18.5°
Drops below altitude 10° 04:50:26 10° 87° (E) 1,467 0.3 -18.1°
Sets 04:52:45 0° 73° (ENE) 2,331 1.7 -17.7°
